Location: Asheville, NC
(35.6000°N, 82.5500°W)
Time: 02:48:44
(UTC-05:00)

Vanguard 1 - Pass Details

Date: 12 February 2018
Orbit: 650 x 3833 km, 34.2° (Epoch: 18 February)

Event Time Altitude Azimuth Distance (km) Brightness Sun altitude
Rises 00:58:51 0° 258° (WSW) 3,264 - -67.9°
Reaches altitude 10° 01:03:01 10° 224° (SW) 2,711 - -67.7°
Maximum altitude 01:05:04 12° 205° (SSW) 2,814 - -67.6°
Drops below altitude 10° 01:07:23 10° 187° (S) 3,194 - -67.5°
Sets 01:13:53 0° 158° (SSE) 4,962 - -67.1°
